Weather observations for the past three days for
Ogden-Hinckley Airport
Imperial (Metric)
Date Time (mdt) Wind (mph) Vis. (mi.) Weather Sky Cond. Temperature (ºF) Relative Humidity Wind Chill (°F) Heat Index (°F) Pressure Precipitation (in)
Air Dwpt 6 hour altimeter (in) sea level (mb) 1 hr 3 hr 6 hr
Max. Min.
09 04:53 NW 5 10.00 Fair CLR 57.9 25 28% 30.05 1013.0
09 03:53 NW 8 10.00 Fair CLR 59 25 27% 30.04 1012.6
09 02:53 Calm 10.00 Fair CLR 61 21.9 22% 30.03 1012.0
09 01:53 N 8 10.00 Fair CLR 60.1 30 32% 30.01 1011.7
09 00:53 N 6 10.00 Fair CLR 61 32 34% 30 1011.3
08 23:53 N 7 10.00 Fair CLR 62.1 33.1 75 57 34% 29.99 1010.8
08 22:53 N 3 10.00 Fair CLR 64 34 33% 29.98 1010.4
08 21:53 NW 5 10.00 Fair CLR 66.9 32 27% 29.96 1010.0
08 20:53 SE 5 10.00 Fair CLR 69.1 30.9 24% 29.94 1009.2
08 19:53 S 7 10.00 Fair CLR 70 30.9 23% 29.93 1009.3
08 18:53 S 7 10.00 Fair CLR 75 28.9 18% 76 29.94 1009.8
08 17:53 S 9 10.00 Fair CLR 75 28.9 75.9 69.1 18% 76 29.96 1010.4
08 16:53 Calm 10.00 Fair CLR 73.9 28.9 19% 29.97 1010.5
08 15:53 Vrbl 3 10.00 Fair CLR 73 28 19% 29.99 1011.6
08 14:53 NW 5 10.00 Fair CLR 73 30 20% 30.01 1012.1
08 13:53 W 6 10.00 Fair CLR 72 30 21% 30.02 1012.4
08 12:53 N 5 10.00 Fair CLR 71.1 32 24% 30.03 1012.7
08 11:53 Vrbl 5 10.00 Fair CLR 69.1 34 69.1 48.9 27% 30.05 1013.3
08 10:53 Vrbl 5 10.00 Fair CLR 68 36 31% 30.05 1013.3
08 09:53 S 3 10.00 Fair CLR 64 37 37% 30.04 1013.2
08 08:53 S 7 10.00 Fair CLR 60.1 36 41% 30.04 1012.8
08 07:53 S 12 10.00 Fair CLR 54 35.1 49% 30.02 1012.6
08 06:53 S 10 10.00 Fair CLR 48.9 34 56% 45 30 1012.0
08 05:53 S 10 10.00 Fair CLR 48.9 35.1 55.9 48.9 59% 45 29.98 1011.4
08 04:53 S 13 10.00 Fair CLR 51.1 34 52% 29.98 1011.2
08 03:53 S 12 10.00 Fair CLR 51.1 35.1 54% 29.97 1011.0
08 02:53 S 8 10.00 Fair CLR 52 36 55% 29.97 1011.0
08 01:53 S 9 10.00 Fair CLR 53.1 36 52% 29.97 1010.8
08 00:53 S 8 10.00 Fair CLR 55 36 49% 29.97 1010.7
07 23:53 S 7 10.00 Fair CLR 55.9 37 73.9 55 49% 29.96 1010.5
07 22:53 S 7 10.00 Fair CLR 57 37 47% 29.95 1010.3
07 21:53 S 6 10.00 Fair CLR 62.1 36 38% 29.94 1009.9
07 20:53 S 5 10.00 Fair CLR 66.9 34 30% 29.93 1009.4
07 19:53 SW 6 10.00 Fair CLR 70 35.1 28% 29.92 1009.3
07 18:53 SW 7 10.00 Fair CLR 73 30.9 21% 29.93 1009.5
07 17:53 SW 9 10.00 Fair CLR 73 32 73.9 68 22% 29.94 1009.8
07 16:53 S 5 10.00 Fair CLR 71.1 32 24% 29.96 1010.7
07 15:53 Vrbl 6 10.00 Fair CLR 70 33.1 26% 29.99 1012.0
07 14:53 W 7 10.00 Fair CLR 70 30 23% 30.01 1012.7
07 13:53 SW 8 10.00 A Few Clouds FEW100 70 27 20% 30.03 1013.0
07 12:53 S 9 10.00 A Few Clouds FEW110 69.1 27 21% 30.03 1013.5
07 11:53 S 12 10.00 Mostly Cloudy BKN100 66.9 26.1 66.9 46.9 21% 30.05 1014.1
07 10:53 S 17 G 26 10.00 Partly Cloudy SCT110 66 26.1 22% 30.06 1014.3
07 09:53 S 10 10.00 Partly Cloudy SCT110 61 28.9 30% 30.07 1014.8
07 08:53 SE 6 10.00 Partly Cloudy SCT110 55 30 38% 30.08 1015.4
07 07:53 SE 6 10.00 Overcast OVC100 52 28.9 41% 30.06 1015.0
07 06:53 SE 12 10.00 Overcast OVC100 48 28.9 48% 44 30.05 1014.8
07 05:53 S 6 10.00 Mostly Cloudy BKN100 BKN120 48 28.9 50 46 48% 46 30.07 1015.4
07 04:53 S 10 10.00 Overcast OVC100 48 28.9 48% 44 30.07 1015.0
07 03:53 S 10 10.00 Fair CLR 46 28.9 51% 42 30.07 1015.4
07 02:53 S 9 10.00 Fair CLR 46.9 28.9 50% 43 30.09 1016.1
07 01:53 S 12 10.00 Fair CLR 48.9 28.9 46% 45 30.09 1016.2
07 00:53 S 12 10.00 Fair CLR 48.9 28.9 46% 45 30.11 1016.8
06 23:53 S 7 10.00 Fair CLR 48.9 28.9 62.1 48.9 46% 46 30.11 1017.0
06 22:53 S 9 10.00 Fair CLR 52 28 40% 30.11 1017.0
06 21:53 S 6 10.00 Fair CLR 54 27 35% 30.1 1017.0
06 20:53 S 7 10.00 Fair CLR 55.9 25 30% 30.1 1016.7
06 19:53 SW 5 10.00 Fair CLR 60.1 23 24% 30.09 1016.3
06 18:53 SW 6 10.00 Fair CLR 62.1 21.9 21% 30.1 1016.6
06 17:53 W 8 10.00 Fair CLR 62.1 24.1 63 54 23% 30.09 1016.4
06 16:53 W 10 G 16 10.00 Fair CLR 63 24.1 23% 30.1 1016.4
06 15:53 W 10 G 18 10.00 Fair CLR 62.1 21.9 21% 30.11 1016.8
06 14:53 NW 8 10.00 Fair CLR 61 19.9 20% 30.11 1017.0
06 13:53 W 15 G 26 10.00 Fair CLR 60.1 19.9 21% 30.11 1016.9
06 12:53 NE 6 10.00 Fair CLR 57.9 19 22% 30.12 1016.8
06 11:53 N 7 10.00 Fair CLR 55.9 16 55.9 43 21% 30.12 1017.1
06 10:53 N 8 10.00 Fair CLR 53.1 21 28% 30.11 1017.0
06 09:53 NE 13 10.00 Fair CLR 50 25 38% 46 30.1 1016.7
06 08:53 NE 10 10.00 Fair CLR 48 25 41% 44 30.08 1016.1
06 07:53 Vrbl 3 10.00 Fair CLR 46 28 50% 30.06 1015.5
06 06:53 NW 3 10.00 Partly Cloudy SCT100 43 26.1 51% 30.04 1014.6
06 05:53 NE 6 10.00 Fair CLR 46 23 55 44.1 40% 44 30 1013.2 0.07
Date Time (mdt) Wind (mph) Vis. (mi.) Weather Sky Cond. Air Dwpt Max. Min. Relative Humidity Wind Chill (°F) Heat Index (°F) altimeter (in) sea level (mb) 1 hr 3 hr 6 hr
6 hour
Temperature (ºF) Pressure Precipitation (in)